Regional Weather Roundup
Issued by NWS Burlington, VT

Home | Current Version | Previous Version | Text Only | Print | Product List | Glossary On
Versions: 1 2 3 4 5 6 7 8 9 10 11 12 13 14 15 16 17 18 19 20 21 22 23 24 25 26 27 28 29 30 31 32 33 34 35 36 37 38 39 40 41 42 43 44 45 46 47 48 49 50
626
ASUS41 KBTV 170810
RWRBTV
VERMONT REGIONAL WEATHER ROUNDUP
NATIONAL WEATHER SERVICE BURLINGTON VT
300 AM EST TUE JAN 17 2017

NOTE: "FAIR" INDICATES FEW OR NO CLOUDS BELOW 12,000 FEET WITH NO
SIGNIFICANT WEATHER AND/OR OBSTRUCTIONS TO VISIBILITY.

* THESE REPORTS ARE NOT UNDER NWS QUALITY CONTROL AND/OR DO NOT
  REPORT WEATHER SUCH AS PRECIPITATION AND FOG.

VTZ001>019-170900-
_____VERMONT_____


CITY           SKY/WX    TMP DP  RH WIND       PRES   REMARKS
BURLINGTON     PTCLDY    21  15  78 CALM      30.23R
MONTPELIER     CLEAR     19  13  77 CALM      30.21R
MORRISVILLE    CLEAR     19  14  81 VRB5      30.22R WCI  12
ST. JOHNSBURY*   N/A     15  11  83 MISG      30.20R
LYNDONVILLE*   FAIR      17  14  88 CALM      30.19R
MIDDLEBURY*    FAIR      21  10  61 CALM      30.21F
RUTLAND*       CLEAR     21  16  81 SE7       30.21R WCI  12
SPRINGFIELD    CLEAR     14  11  87 CALM      30.21R
HIGHGATE*      FAIR      28  18  68 S3        30.23S
NEWPORT*       MOCLDY    29  18  63 NW5       30.18F WCI  24
BENNINGTON     CLOUDY    19  14  81 CALM      30.21S
SUTTON*          N/A     21 N/A N/A MISG        N/A

_____LAKE CHAMPLAIN_____


CITY           SKY/WX    TMP DP  RH WIND       PRES   REMARKS
BURTON ISLAND*   N/A     30  27  86 S3          N/A
COLCHESTER RF*   N/A     34  30  86 S6          N/A  WCI  29
DIAMOND ISL*     N/A     30  28  93 NE3         N/A

$$

NYZ007-026>031-035-052-083-087-170900-
_____NORTHERN NEW YORK_____


CITY           SKY/WX    TMP DP  RH WIND       PRES   REMARKS
PLATTSBURGH    CLEAR     25  16  68 CALM      30.23R
SARANAC LAKE   CLEAR     10   6  84 CALM      30.17R
MASSENA        CLEAR     22  19  89 SW3       30.25S
OGDENSBURG*    CLEAR     19  19 100 CALM      30.22F FOG
POTSDAM*       CLEAR     27  25  93 CALM      30.23S
WATERTOWN      PTCLDY    21  20  96 E6        30.23S WCI  13
FT DRUM        CLOUDY    23  17  78 SE9       30.21S WCI  13
ALBANY         PTCLDY    22  17  81 CALM      30.24F
GLENS FALLS    CLOUDY    17  12  80 CALM      30.24R

$$
NHZ002-005-011-170900-
_____NEW HAMPSHIRE_____


CITY           SKY/WX    TMP DP  RH WIND       PRES   REMARKS
LEBANON        CLEAR     17  13  84 CALM      30.20R
KEENE          CLEAR     14  12  92 CALM      30.23R
MT WASHINGTON  PTCLDY    14  10  85 NW61        N/A  WCI -13
PLYMOUTH       FAIR      21  16  82 CALM      30.18R
WHITEFIELD     CLEAR     12   6  77 CALM      30.17R

$$

_____REGIONAL QUEBEC LOCATIONS_____


CITY           SKY/WX    TMP DP  RH WIND       PRES   REMARKS
MONTREAL       PTCLDY    28  25  86 SW6       30.22R WCI  22
QUEBEC CITY    MOCLDY    28  18  64 NW12      30.18R WCI  18
SHERBROOKE     CLOUDY    30  23  74 W6        30.16S WCI  24

_____REGIONAL ONTARIO LOCATIONS_____


CITY           SKY/WX    TMP DP  RH WIND       PRES   REMARKS
OTTAWA         CLEAR     21  18  86 SW3       30.22S

______KEY______
VSB  - VISIBILITY IN MILES
WCI  - WIND CHILL INDEX
HX   - HEAT INDEX
$$
NNNN




USA.gov is the U.S. government's official web portal to all federal, state and local government web resources and services.